Regional Weather Roundup
Issued by NWS Newport/Morehead, NC

Current Version | Previous Version | Graphics & Text | Print | Product List | Glossary Off
Versions: 1 2 3 4 5 6 7 8 9 10 11 12 13 14 15 16 17 18 19 20 21 22 23 24 25 26 27 28 29 30 31 32 33 34 35 36 37 38 39 40 41 42 43 44 45 46 47 48 49 50

000
ASUS42 KMHX 272010
RWRMHX
WEATHER ROUNDUP FOR EASTERN NORTH CAROLINA
NATIONAL WEATHER SERVICE NEWPORT/MOREHEAD CITY NC
400 PM EDT SUN JUL 27 2014

NOTE: "FAIR" INDICATES FEW OR NO CLOUDS BELOW 12,000 FEET
WITH NO SIGNIFICANT WEATHER AND/OR OBSTRUCTIONS TO VISIBILITY

NCZ015>017-031-032-045>047-102-103-272100-
NORTH COAST

CITY           SKY/WX    TMP DP  RH WIND       PRES   REMARKS
EDENTON        CLOUDY    81  72  74 W6        29.83F
ELIZABETH CITY CLOUDY    80  74  81 SW7       29.82F
KITTY HAWK     LGT RAIN  82  76  81 SW6       29.83F
MANTEO         NOT AVBL

$$

NCZ045>047-081-094-103-104-272100-
CENTRAL COAST

CITY           SKY/WX    TMP DP  RH WIND       PRES   REMARKS
FRISCO         CLOUDY    83  74  74 SW12      29.87F
SWANQUARTER      N/A     81 N/A N/A W8        29.82F

$$

NCZ095-097-098-100-101-272100-
SOUTHERN COAST

CITY           SKY/WX    TMP DP  RH WIND       PRES   REMARKS
BEAUFORT       CLOUDY    86  78  77 SW14      29.87F
CEDAR ISLAND     N/A     81 N/A N/A NW1G14    29.91S
JACKSONVILLE   CLOUDY    87  75  67 W6        29.89F
NEWPORT        NOT AVBL
PINEY ISLAND   CLOUDY    84  73  69 NW6       29.87F
WILMINGTON     CLOUDY    91  72  53 W9        29.89F


$$

NCZ011>013-027>030-043-044-078>080-089-090>093-098-272100-
COASTAL PLAIN

CITY           SKY/WX    TMP DP  RH WIND       PRES   REMARKS
AHOSKIE        PTSUNNY   80  73  79 CALM      29.84F
CLINTON        SUNNY     87  76  69 SW3       29.90F
ELIZABETHTOWN  SUNNY     91  70  49 W6        29.91F
GOLDSBORO      PTSUNNY   85  75  71 W13       29.87F
GREENVILLE     CLOUDY    79  72  78 W6        29.90F
HAVELOCK       CLOUDY    86  72  62 CALM      29.89F
KENANSVILLE    PTSUNNY   85  71  62 W6        29.90F
KINSTON        NOT AVBL
NEW BERN       CLOUDY    86  71  60 NW3       29.90F
RICHLANDS      PTSUNNY   90  73  58 SW6       29.89F
ROANOKE RAPIDS NOT AVBL
ROCKY MOUNT    MOSUNNY   82  71  69 SW10      29.87F
WASHINGTON     CLOUDY    78  70  74 W8        29.89R
WHITEVILLE     SUNNY     92  72  52 SW6       29.90F HX 100

$$

AMZ130-135-150-152-154-156-158-170-250-252-270-ANZ085-086-088-633-658-670-272100-
MARINE OBSERVATIONS

STATION/POSITION TIME  TEMP    WIND        PRES    WAVE   SWELL
                       AIR SEA DIR/SP/G            HT/PER HT/PER
                 (UTC) (F)     (DEG/KT/KT) (MB)    (FT/S) (FT/S)
CHESAPEAKE LIGHT NOT AVBL
BUOY 44014       2000   79 79  220/  8/  8 1010.0    3/ 4   2/ 4
DUCK             2000   82 71  240/ 14/ 17 1009.5
2E DUCK          2000                        N/A     1/13
OREGON INLET     2000   83 82  240/ 13/ 15 1010.7
BUOY 44095       2000      79                N/A     3/ 5
20E OREGON INLET NOT AVBL
HATTERAS CG      2000   82 82  220/ 12/ 15 1011.9
DIAMOND BUOY     2000          VRB 16/ 17  1011.4    3/ 4   2/ 7
CAPE LOOKOUT     NOT AVBL
BEAUFORT LAB     2000   85 83  210/  9/ 12 1011.7
30 SE NEW RIVER  2000   83 82  220/ 12/ 14 1012.9    3/ 5   2/ 9
5 SE WRIGHTSVILL 1900   82 82  230/ 12/ 14   N/A
BUOY 41002       1939   82 81  250/ 16/ 17 1016.1    4/ 8   3/ 8
BUOY 41004       2000   84 84  220/ 12/ 14 1013.3    3/ 5   2/ 9

$$


USA.gov is the U.S. government's official web portal to all federal, state and local government web resources and services.